CW3742 Weather Reports


time (UTC)temp
C
wind
direction
speed
KPH
gust
KPH
rain 1hr
cm
rain 24hr
cm
rain mn
cm
humidity
%
barometer
mb
20260906190017 27 113 9.7 22.5 0.00 0.00 0.00 70 998.6
20260906183017 26 90 9.7 20.9 0.00 0.00 0.00 74 998.8
20260906180017 26 113 8.0 17.7 0.00 0.00 0.00 75 998.9
20260906173017 26 113 8.0 20.9 0.00 0.00 0.00 77 999.3
20260906170017 26 113 11.3 25.7 0.00 0.00 0.00 75 999.5
20260906163037 25 113 9.7 19.3 0.00 0.00 0.00 78 999.7
20260906160017 25 113 8.0 17.7 0.00 0.00 0.00 82 999.9
20260906153057 24 113 9.7 19.3 0.00 0.00 0.00 83 999.9
20260906150017 23 68 8.0 14.5 0.00 0.00 0.00 88 999.7
20260906143017 22 68 8.0 17.7 0.00 0.00 0.00 90 999.4
20260906140038 21 90 8.0 19.3 0.00 0.00 0.00 93 999.2
20260906133019 21 90 8.0 14.5 0.00 0.00 0.00 94 998.9
20260906130019 21 90 8.0 16.1 0.00 0.00 0.00 95 998.7
20260906123017 21 45 4.8 14.5 0.00 0.00 0.00 95 998.8
20260906120017 21 113 1.6 6.4 0.00 0.00 0.00 94 998.6
20260906113018 21 113 1.6 8.0 0.00 0.00 0.00 94 998.2
20260906110037 21 113 1.6 6.4 0.00 0.00 0.00 94 998.1
20260906103037 21 113 4.8 11.3 0.00 0.00 0.00 93 997.8
20260906100017 22 113 9.7 19.3 0.00 0.00 0.00 93 997.4
20260906093057 22 90 9.7 19.3 0.00 0.00 0.00 93 997.1
20260906090037 22 90 9.7 20.9 0.00 0.00 0.00 93 996.9
20260906083017 22 90 9.7 19.3 0.00 0.00 0.00 92 997.0
20260906080017 22 68 9.7 19.3 0.00 0.00 0.00 92 997.0
20260906073017 23 68 8.0 19.3 0.00 0.00 0.00 92 997.2
20260906070017 23 68 6.4 12.9 0.00 0.00 0.00 91 997.3
20260906063018 23 68 6.4 11.3 0.00 0.00 0.00 91 997.3
20260906060017 23 68 8.0 14.5 0.00 0.00 0.00 91 997.4
20260906053017 23 68 6.4 14.5 0.00 0.00 0.00 91 997.4
20260906050017 23 68 6.4 12.9 0.00 0.00 0.00 90 997.1
20260906043017 24 68 9.7 20.9 0.00 0.00 0.00 90 996.7
20260906040017 24 68 9.7 20.9 0.00 0.00 0.00 89 996.4
20260906033017 25 68 9.7 20.9 0.00 0.00 0.00 89 996.1
20260906030018 25 68 11.3 20.9 0.00 0.00 0.00 89 995.9
20260906023017 26 45 9.7 17.7 0.00 0.00 0.00 89 995.9
20260906020017 26 45 11.3 17.7 0.00 0.00 0.00 87 995.5
20260906013017 27 45 12.9 24.1 0.00 0.00 0.00 86 995.1
20260906010037 28 45 11.3 24.1 0.00 0.00 0.00 83 994.8
20260906003038 29 45 4.8 9.7 0.00 0.00 0.00 81 994.5
20260906000017 30 45 6.4 12.9 0.00 0.00 0.00 76 994.6
20260905233017 31 45 6.4 17.7 0.00 0.00 0.00 73 994.4
20260905230037 32 45 6.4 12.9 0.00 0.00 0.00 71 994.2
20260905223017 32 45 6.4 12.9 0.00 0.00 0.00 71 994.2
20260905220037 32 45 8.0 22.5 0.00 0.00 0.00 72 994.0
20260905213037 33 0 4.8 14.5 0.00 0.00 0.00 66 994.2
20260905210037 33 0 4.8 9.7 0.00 0.00 0.00 66 994.6
20260905203017 32 338 4.8 8.0 0.00 0.00 0.00 68 994.7
20260905200017 33 338 4.8 9.7 0.00 0.00 0.00 69 994.9
20260905193017 33 338 4.8 11.3 0.00 0.00 0.00 66 995.1